Weather in Aldiarovo

Russia / Chuvash Republic     55°35′16″N   47°45′37″E
temp.,
°C
wind,
m/s
gust,
m/s
humid.,
%
clouds,
%
prec.,
mm/h
press.,
hPa
HPBL,
m
11 april, sun
sun1100:00+1n36100100 0.2 1025139
03:00+1n36100100 0.2 1027140
06:00+1n48100100 0.1 1027198
09:00+2n37100100 1.1 1029218
12:00+3n47100100 0.0 1030251
15:00+4n23100100 0.0 1032145
18:00+3n24100100 0.0 103269
21:00+2nne2699100 0.0 1033127
12 april, mon
mon1200:00+1ene2698100 0.9 1035121
03:00+1ene3890100 2.7 1036186
06:00+1ne3889100 1.6 1037203
09:00+3ene41283100 1.7 1037268
12:00+3ene41089100 0.0 1037292
15:00+5e41191100 0.0 1037318
18:00+5e41291100 0.0 1036278
21:00+3e399391 0.0 1037154
13 april, tue
tue1300:00+3e3595100 0.0 103680
03:00+3ese369697 0.0 103677
06:00+4se369598 0.0 103593
09:00+10sse4785100 0.0 1034247
12:00+15sse466851 0.0 1033546
15:00+17sse565868 0.0 1032874
18:00+13sse487185 0.0 1031144
21:00+10sse367525 0.0 103268
14 april, wed
wed1400:00+8s347431 0.0 103144
03:00+7s33705 0.0 103125
06:00+6s337087 0.0 103031
09:00+12s455347 0.0 1030307
12:00+16sse453766 0.0 1028724
15:00+17sse563328 0.0 1027896
18:00+13sse36515 0.0 1025116
21:00+10sse346666 0.0 102544
15 april, thu
thu1500:00+8s227416 0.0 102418
03:00+7sse22795 0.0 102312
06:00+7sse22795 0.0 102321
09:00+13s34605 0.0 1021345
12:00+17s34495 0.0 10201027
15:00+18s34450 0.0 10181432
18:00+15sse34572 0.0 101750
21:00+11ssw22730 0.0 101712